STARLINK-33676, 63403

Orbit data source: Space-Track

STARLINK-33676, 63403 is a payload satellite owned by SpaceX/Seattle (US) in LEO that was launched on Mon, 31 Mar 2025 UTC via an FALCON 9 launch vehicle from the Air Force Eastern Test Range (AFETR). Payload-class satellites include a variety of spacecraft equipped with specific instruments for various scientific and technological missions. These include communications satellites like Starlink; space stations such as the ISS; scientific satellites like the Hubble; Earth observation satellites from companies like Planet Labs, Umbra, and HawkEye 360; GPS; miniature CubeSats for education and research; and military/defense satellites.

Loading next visibility...
Identifier
63403, 2025-065E
Orbit
LEO
Country
Flag of USUS
Related business
Manufacturer
SpaceX/Seattle
Mission
Operational Commercial Communications
Bus & Motor
STARLINK V2MO, Unknown motor
Mass
575 kg wet, ~530 kg dry
Launch date (UTC)
2025-03-31 (1 year ago)
Launch vehicle
FALCON 9
Launch site
Air Force Eastern Test Range (AFETR)
Object type
Payload
Rocket body
Debris
Shape & HBR
Box + 2 Pan, 17.7 m
Radar Cross Section
36.964 m², Large (>1 m²)

Expand to show TLE details & history
Last TLE update: 1 day ago

TLE from 1 day ago
0 STARLINK-33676
1 63403U 25065E   26170.50932167  .00019299  00000-0  70811-3 0  9993
2 63403  43.0007 251.9113 0001649 272.3721  87.6942 15.27620601 68413
Epoch: 2026-06-19T12:13Z
TLE epoch observation values (Epoch: 2026-06-19T12:13:25.392Z)
Latitude
Longitude
160.81822°
Altitude
482.658 km
Speed
7.626 km/s
True Right ascension
16h 47m 38s
True Declination
0° 00' 00"
Sunlit
Object was in full shadow at epoch
Visualization orbit readout
Latitude
Unknown
Longitude
Unknown
Altitude
Unknown
Speed
Unknown
Apparent Right ascension
Unknown
Apparent Declination
Unknown
Sunlit
N/A
Visualization observer readout
Local Sidereal Time
10:18:01
Azimuth
Unknown
Elevation
Unknown
Doppler factor
Unknown
Orbital elements
Apogee altitude
486.004 km
Perigee altitude
483.741 km
Semi-major axis
6,863.01 km
Eccentricity
0.00016
Inclination
43.0007°
RAAN
251.9113°
Arg. of periapsis
272.3721°
True anomaly
87.71308°
Mean anomaly
87.6942°
Eccentric anomaly
87.70364°
Mean motion
3.81743 °/min
Orbital period
94.3 mins
BSTAR
0.00070811
Loading maneuver chart data...
Computing Atmospheric mass density...
Loading historical data...
Loading historical data...
Loading historical data...
Loading historical data...
Loading historical data...
Loading historical data...
Loading historical data...

Documentation

Showing up to 5 results
|